period_start,C,m1,H,J0,J1,J2,J3,J4,J5,JA,JB,JC,JD,JJ,JK,JN,#
2016-02-12 00:00:22,0.19,1.63,0.00,16.62,20.47,24.40,15.07,47.77,1030.29,2059.04,2993.13,2719.72,3082.74,599.85,617.24,8.38,0000 0000 0000 0000 000000
2016-02-12 00:05:23,0.19,1.64,0.00,16.62,20.45,24.43,15.04,47.73,1030.29,2059.06,2989.92,2717.31,3080.00,599.93,617.25,8.43,0000 0000 0000 0000 000000
2016-02-12 00:10:25,0.19,1.65,0.00,16.62,20.44,24.43,15.11,47.74,1030.29,2059.08,2986.75,2714.94,3077.24,599.96,617.19,8.48,0000 0000 0000 0000 000000
2016-02-12 00:15:26,0.18,1.66,0.00,16.62,20.44,24.42,15.00,47.73,1030.29,2059.13,2983.74,2712.59,3074.52,599.95,617.31,8.53,0000 0000 0000 0000 000000
2016-02-12 00:20:28,0.18,1.67,0.00,16.62,20.44,24.38,15.07,47.72,1030.29,2059.16,2980.57,2710.23,3071.81,599.92,617.30,8.58,0000 0000 0000 0000 000000
2016-02-12 00:25:29,0.17,1.68,0.00,16.62,20.44,24.43,15.09,47.74,1030.27,2059.10,2977.41,2707.85,3069.18,600.06,617.41,8.63,0000 0000 0000 0000 000000
2016-02-12 00:30:30,0.18,1.69,0.00,16.60,20.44,24.42,15.07,47.71,1030.27,2059.14,2974.30,2705.52,3066.48,600.09,617.51,8.68,0000 0000 0000 0000 000000
2016-02-12 00:35:32,0.17,1.70,0.00,16.62,20.44,24.42,15.05,47.64,1030.20,2059.10,2971.06,2703.18,3063.81,599.77,617.22,8.73,0000 0000 0000 0000 000000
2016-02-12 00:40:33,0.19,1.71,0.00,16.60,20.44,24.41,15.06,47.61,1030.25,2059.10,2967.83,2700.79,3061.11,599.70,617.01,8.78,0000 0000 0000 0000 000000
2016-02-12 00:45:34,0.18,1.72,0.00,16.59,20.43,24.38,15.08,47.72,1030.18,2059.17,2964.69,2698.46,3058.43,600.02,617.36,8.84,0000 0000 0000 0000 000000
2016-02-12 00:50:36,0.18,1.73,0.00,16.60,20.43,24.44,15.03,47.69,1030.20,2059.11,2961.55,2696.07,3055.66,599.98,617.32,8.89,0000 0000 0000 0000 000000
2016-02-12 00:55:37,0.18,1.73,0.00,16.58,20.42,24.39,15.04,47.63,1030.15,2059.07,2958.33,2693.66,3052.91,600.19,617.47,8.94,0000 0000 0000 0000 000000
2016-02-12 01:00:39,0.19,1.74,0.00,16.56,20.42,24.38,15.06,47.75,1030.03,2059.07,2955.02,2691.26,3050.19,599.58,616.89,8.99,0000 0000 0000 0000 000000
2016-02-12 01:05:40,0.19,1.75,0.00,16.55,20.42,24.37,15.07,47.81,1030.08,2059.05,2951.75,2688.81,3047.41,599.84,617.21,9.04,0000 0000 0000 0000 000000
2016-02-12 01:10:41,0.18,1.76,0.00,16.55,20.42,24.38,15.16,47.88,1030.22,2059.06,2948.48,2686.47,3044.72,600.11,617.46,9.09,0000 0000 0000 0000 000000
2016-02-12 01:15:43,0.19,1.77,0.00,16.54,20.42,24.37,15.04,47.75,1030.15,2059.16,2945.48,2684.21,3042.02,599.53,617.08,9.14,0000 0000 0000 0000 000000
2016-02-12 01:20:44,0.18,1.78,0.00,16.53,20.42,24.40,15.04,47.67,1030.03,2059.08,2942.32,2681.83,3039.33,599.86,617.35,9.19,0000 0000 0000 0000 000000
2016-02-12 01:25:45,0.19,1.79,0.00,16.54,20.42,24.43,15.03,47.83,1030.06,2059.10,2939.12,2679.48,3036.57,600.09,617.48,9.24,0000 0000 0000 0000 000000
2016-02-12 01:30:46,0.19,1.80,0.00,16.54,20.42,24.38,15.08,48.01,1029.85,2059.09,2935.93,2677.06,3033.90,599.88,617.18,9.29,0000 0000 0000 0000 000000
2016-02-12 01:35:48,0.19,1.81,0.00,16.54,20.42,24.34,15.10,48.01,1029.82,2059.11,2932.69,2674.62,3031.18,599.96,617.20,9.34,0000 0000 0000 0000 000000
2016-02-12 01:40:49,0.19,1.82,0.00,16.53,20.42,24.36,15.09,47.98,1029.81,2059.11,2929.39,2672.21,3028.40,599.89,617.13,9.39,0000 0000 0000 0000 000000
2016-02-12 01:45:50,0.19,1.83,0.00,16.52,20.42,24.39,15.13,48.06,1029.80,2059.08,2926.25,2669.79,3025.60,600.03,617.30,9.44,0000 0000 0000 0000 000000
2016-02-12 01:50:51,0.18,1.84,0.00,16.52,20.44,24.36,14.99,47.86,1029.81,2059.07,2923.21,2667.43,3022.89,599.59,616.86,9.49,0000 0000 0000 0000 000000
2016-02-12 01:55:52,0.19,1.85,0.00,16.53,20.44,24.34,15.14,47.93,1029.81,2059.04,2920.00,2665.04,3020.13,600.15,617.12,9.54,0000 0000 0000 0000 000000
2016-02-12 02:00:53,0.19,1.86,0.00,16.50,20.44,24.38,15.01,47.90,1029.80,2059.07,2916.76,2662.65,3017.43,599.66,616.96,9.59,0000 0000 0000 0000 000000
2016-02-12 02:05:55,0.19,1.87,0.00,16.49,20.44,24.37,15.11,47.83,1029.80,2059.02,2913.47,2660.27,3014.74,599.93,617.26,9.64,0000 0000 0000 0000 000000
2016-02-12 02:10:56,0.19,1.88,0.00,16.50,20.44,24.39,15.04,47.93,1029.80,2059.03,2910.24,2657.91,3012.10,599.80,617.10,9.69,0000 0000 0000 0000 000000
2016-02-12 02:15:58,0.18,1.89,0.00,16.49,20.44,24.35,15.12,47.89,1029.80,2059.02,2907.30,2655.53,3009.29,600.09,617.36,9.74,0000 0000 0000 0000 000000
2016-02-12 02:20:59,0.18,1.90,0.00,16.49,20.44,24.36,15.02,47.86,1029.80,2059.04,2904.30,2653.21,3006.76,600.10,617.29,9.79,0000 0000 0000 0000 000000
2016-02-12 02:26:00,0.19,1.91,0.00,16.49,20.44,24.40,15.13,48.04,1029.80,2059.02,2900.97,2650.87,3004.22,600.14,617.41,9.84,0000 0000 0000 0000 000000
2016-02-12 02:31:01,0.18,1.92,0.00,16.52,20.44,24.37,15.06,48.08,1029.79,2059.04,2897.78,2648.52,3001.60,600.04,617.32,9.89,0000 0000 0000 0000 000000
2016-02-12 02:36:03,0.19,1.93,0.00,16.52,20.44,24.35,15.15,47.85,1029.74,2059.01,2894.64,2646.14,2998.90,600.14,617.39,9.94,0000 0000 0000 0000 000000
2016-02-12 02:41:04,0.18,1.94,0.00,16.52,20.44,24.40,15.06,48.03,1029.71,2059.03,2891.48,2643.79,2996.27,599.95,617.24,9.99,0000 0000 0000 0000 000000
2016-02-12 02:46:05,0.18,1.95,0.00,16.51,20.44,24.33,15.13,48.06,1029.77,2059.04,2888.37,2641.47,2993.59,600.09,617.28,10.04,0000 0000 0000 0000 000000
2016-02-12 02:51:06,0.19,1.95,0.00,16.53,20.44,24.37,15.06,48.00,1029.78,2059.04,2885.31,2639.19,2990.96,600.05,617.29,10.09,0000 0000 0000 0000 000000
2016-02-12 02:56:07,0.19,1.96,0.00,16.54,20.44,24.37,15.10,48.11,1029.74,2059.03,2882.11,2636.76,2988.22,600.15,617.42,10.14,0000 0000 0000 0000 000000
2016-02-12 03:01:09,0.17,1.97,0.00,16.54,20.44,24.36,15.01,48.02,1029.57,2059.02,2879.31,2634.45,2985.49,599.66,616.67,10.19,0000 0000 0000 0000 000000
2016-02-12 03:06:10,0.20,1.98,0.00,16.54,20.44,24.37,15.04,48.06,1029.40,2059.00,2876.24,2632.14,2982.80,599.86,616.84,10.24,0000 0000 0000 0000 000000
2016-02-12 03:11:12,0.19,1.99,0.00,16.53,20.45,24.39,15.05,47.92,1029.33,2059.02,2872.96,2629.74,2980.19,600.13,617.16,10.29,0000 0000 0000 0000 000000
2016-02-12 03:16:13,0.18,2.00,0.00,16.53,20.45,24.42,15.13,48.13,1029.33,2059.01,2869.92,2627.43,2977.55,599.98,616.91,10.34,0000 0000 0000 0000 000000
2016-02-12 03:21:14,0.19,2.01,0.00,16.56,20.47,24.36,15.11,48.06,1029.32,2059.00,2867.03,2625.15,2974.79,599.94,616.83,10.39,0000 0000 0000 0000 000000
2016-02-12 03:26:16,0.19,2.02,0.00,16.57,20.47,24.40,15.00,47.93,1029.32,2059.00,2863.71,2622.82,2972.13,599.73,616.59,10.44,0000 0000 0000 0000 000000
2016-02-12 03:31:17,0.18,2.03,0.00,16.57,20.47,24.41,15.06,47.92,1029.32,2059.00,2860.49,2620.56,2969.45,600.09,616.96,10.49,0000 0000 0000 0000 000000
2016-02-12 03:36:18,0.18,2.04,0.00,16.58,20.47,24.39,15.08,47.80,1029.31,2059.00,2857.74,2618.33,2966.69,600.20,617.06,10.54,0000 0000 0000 0000 000000
2016-02-12 03:41:19,0.19,2.05,0.00,16.59,20.48,24.45,15.09,47.79,1029.31,2058.99,2854.57,2615.99,2964.11,600.67,617.52,10.59,0000 0000 0000 0000 000000
2016-02-12 03:46:21,0.19,2.06,0.00,16.61,20.49,24.40,15.04,47.89,1029.32,2058.99,2851.51,2613.66,2961.44,600.01,616.81,10.64,0000 0000 0000 0000 000000
2016-02-12 03:51:22,0.18,2.07,0.00,16.62,20.49,24.39,14.97,47.77,1029.33,2058.99,2848.67,2611.45,2958.84,599.46,616.21,10.69,0000 0000 0000 0000 000000
2016-02-12 03:56:23,0.19,2.08,0.00,16.62,20.49,24.44,15.00,47.72,1029.34,2058.98,2845.54,2609.15,2956.18,599.86,616.96,10.74,0000 0000 0000 0000 000000
2016-02-12 04:01:24,0.18,2.09,0.00,16.63,20.49,24.39,15.09,47.76,1029.36,2058.98,2842.50,2606.91,2953.65,600.22,616.99,10.79,0000 0000 0000 0000 000000
2016-02-12 04:06:26,0.18,2.10,0.00,16.66,20.49,24.41,15.06,47.83,1029.34,2058.98,2839.53,2604.68,2951.11,600.08,616.81,10.84,0000 0000 0000 0000 000000
2016-02-12 04:11:27,0.18,2.11,0.00,16.66,20.49,24.39,14.98,47.87,1029.35,2058.97,2836.58,2602.43,2948.55,600.19,616.94,10.89,0000 0000 0000 0000 000000
2016-02-12 04:16:28,0.18,2.12,0.00,16.67,20.49,24.45,15.12,47.73,1029.32,2058.98,2833.66,2600.26,2946.04,600.16,616.83,10.94,0000 0000 0000 0000 000000
2016-02-12 04:21:30,0.19,2.13,0.00,16.69,20.50,24.43,15.01,47.84,1029.32,2058.98,2830.79,2598.02,2943.50,600.04,616.65,10.99,0000 0000 0000 0000 000000
2016-02-12 04:26:31,0.19,2.14,0.00,16.73,20.52,24.49,14.98,47.83,1029.32,2058.96,2827.64,2595.70,2940.98,599.91,616.45,11.04,0000 0000 0000 0000 000000
2016-02-12 04:31:32,0.19,2.15,0.00,16.74,20.52,24.49,15.01,47.85,1029.32,2058.96,2824.64,2593.37,2938.40,600.09,616.55,11.09,0000 0000 0000 0000 000000
2016-02-12 04:36:33,0.18,2.16,0.00,16.74,20.54,24.48,15.06,47.75,1029.31,2058.92,2821.70,2591.18,2935.69,599.96,616.49,11.15,0000 0000 0000 0000 000000
2016-02-12 04:41:34,0.17,2.17,0.00,16.74,20.54,24.51,14.97,47.75,1029.31,2058.79,2818.57,2588.83,2933.11,599.85,616.41,11.20,0000 0000 0000 0000 000000
2016-02-12 04:46:36,0.18,2.17,0.00,16.75,20.54,24.51,14.97,47.73,1029.31,2058.70,2815.78,2586.65,2930.52,599.46,615.91,11.25,0000 0000 0000 0000 000000
2016-02-12 04:51:37,0.16,2.18,0.00,16.77,20.56,24.50,15.02,47.68,1029.31,2058.45,2812.76,2584.41,2928.05,599.45,615.86,11.30,0000 0000 0000 0000 000000
2016-02-12 04:56:38,0.19,2.19,0.00,16.79,20.57,24.52,15.03,47.83,1029.31,2058.39,2809.71,2582.15,2925.45,599.67,616.04,11.35,0000 0000 0000 0000 000000
2016-02-12 05:01:39,0.16,2.20,0.00,16.80,20.57,24.56,14.97,47.73,1029.31,2058.13,2806.58,2579.84,2922.89,599.77,616.15,11.40,0000 0000 0000 0000 000000
2016-02-12 05:06:40,0.19,2.21,0.00,16.79,20.57,24.49,15.06,47.67,1029.31,2058.22,2803.66,2577.62,2920.38,600.23,616.64,11.45,0000 0000 0000 0000 000000
2016-02-12 05:11:41,0.18,2.22,0.00,16.78,20.58,24.56,15.01,47.73,1029.31,2058.12,2800.76,2575.41,2917.77,599.79,616.23,11.50,0000 0000 0000 0000 000000
2016-02-12 05:16:43,0.18,2.23,0.00,16.79,20.59,24.51,15.01,47.62,1029.31,2058.08,2797.88,2573.19,2915.21,599.85,616.13,11.55,0000 0000 0000 0000 000000
2016-02-12 05:21:44,0.18,2.24,0.00,16.79,20.59,24.56,14.99,47.62,1029.31,2058.06,2794.88,2571.01,2912.69,600.06,616.46,11.60,0000 0000 0000 0000 000000
2016-02-12 05:26:45,0.18,2.25,0.00,16.79,20.59,24.50,15.07,48.32,1029.31,2058.04,2791.81,2568.75,2910.21,600.10,616.51,11.65,0000 0000 0000 0000 000000
2016-02-12 05:31:46,0.18,2.26,0.00,16.78,20.57,24.54,15.14,48.01,1029.31,2058.06,2788.89,2566.57,2907.70,600.03,616.48,11.70,0000 0000 0000 0000 000000
2016-02-12 05:36:47,0.19,2.27,0.00,16.77,20.57,24.56,15.07,47.71,1029.26,2058.04,2785.94,2564.39,2905.13,600.40,616.77,11.75,0000 0000 0000 0000 000000
2016-02-12 05:41:48,0.18,2.28,0.00,16.76,20.57,24.58,15.03,47.67,1029.31,2058.04,2783.11,2562.22,2902.64,600.19,616.66,11.80,0000 0000 0000 0000 000000
2016-02-12 05:46:50,0.19,2.29,0.00,16.75,20.57,24.54,15.03,47.64,1029.30,2058.04,2780.28,2560.10,2900.13,599.89,616.43,11.85,0000 0000 0000 0000 000000
2016-02-12 05:51:51,0.17,2.29,0.00,16.73,20.57,24.55,15.03,47.76,1029.27,2058.03,2777.27,2558.15,2897.72,599.69,616.38,11.90,0000 0000 0000 0000 000000
2016-02-12 05:56:53,0.18,2.30,0.00,16.74,20.55,24.47,15.05,47.74,1029.27,2058.04,2774.31,2556.03,2895.28,600.21,616.80,11.95,0000 0000 0000 0000 000000
2016-02-12 06:01:54,0.18,2.31,0.00,16.74,20.54,24.47,15.10,47.65,1029.29,2058.04,2771.54,2553.88,2892.84,600.09,616.60,12.00,0000 0000 0000 0000 000000
2016-02-12 06:06:56,0.18,2.32,0.00,16.72,20.54,24.51,15.07,47.61,1029.27,2058.07,2768.54,2551.75,2890.40,600.23,616.61,12.05,0000 0000 0000 0000 000000
2016-02-12 06:11:57,0.19,2.33,0.00,16.72,20.52,24.51,15.01,47.70,1029.25,2058.12,2765.63,2549.59,2888.12,600.12,616.58,12.10,0000 0000 0000 0000 000000
2016-02-12 06:16:58,0.18,2.34,0.00,16.72,20.52,24.52,15.09,47.58,1029.30,2058.14,2762.92,2547.54,2885.65,600.30,616.79,12.15,0000 0000 0000 0000 000000
2016-02-12 06:21:59,0.19,2.35,0.00,16.72,20.51,24.55,15.02,47.58,1029.31,2058.26,2760.11,2545.45,2883.26,599.94,616.50,12.20,0000 0000 0000 0000 000000
2016-02-12 06:27:01,0.19,2.36,0.00,16.71,20.49,24.46,15.01,47.74,1029.31,2058.34,2757.13,2543.30,2880.91,600.05,616.62,12.25,0000 0000 0000 0000 000000
2016-02-12 06:32:02,0.20,2.37,0.00,16.70,20.49,24.45,15.08,47.82,1029.31,2058.36,2754.20,2541.17,2878.58,599.81,616.52,12.30,0000 0000 0000 0000 000000
2016-02-12 06:37:03,0.16,2.38,0.00,16.70,20.49,24.45,14.95,47.74,1029.31,2058.31,2751.34,2539.02,2876.21,599.72,616.31,12.35,0000 0000 0000 0000 000000
2016-02-12 06:42:04,0.18,2.39,0.00,16.68,20.49,24.48,14.96,47.88,1029.29,2058.18,2748.51,2536.79,2873.70,599.94,616.57,12.40,0000 0000 0000 0000 000000
2016-02-12 06:47:06,0.24,2.40,0.00,16.66,20.48,24.48,15.01,48.02,1029.29,2058.57,2745.57,2534.66,2871.35,599.71,616.40,12.45,0000 0000 0000 0000 000000
2016-02-12 06:52:07,0.19,2.41,0.00,16.68,20.48,24.49,15.05,47.92,1029.30,2058.75,2742.84,2532.53,2868.83,599.95,616.52,12.50,0000 0000 0000 0000 000000
2016-02-12 06:57:09,0.18,2.42,0.00,16.66,20.49,24.42,15.01,47.81,1029.29,2058.82,2739.93,2530.38,2866.40,600.10,616.77,12.55,0000 0000 0000 0000 000000
2016-02-12 07:02:10,0.18,2.43,0.00,16.65,20.49,24.45,15.11,47.74,1029.29,2058.90,2737.25,2528.34,2864.02,600.16,616.85,12.60,0000 0000 0000 0000 000000
2016-02-12 07:07:11,0.18,2.44,0.00,16.68,20.49,24.45,15.03,47.84,1029.30,2058.91,2734.51,2526.21,2861.63,599.85,616.48,12.65,0000 0000 0000 0000 000000
2016-02-12 07:12:12,0.18,2.45,0.00,16.67,20.48,24.48,15.03,47.63,1029.30,2058.92,2731.82,2524.19,2859.23,600.02,616.59,12.70,0000 0000 0000 0000 000000
2016-02-12 07:17:13,0.18,2.46,0.00,16.65,20.48,24.43,15.05,47.75,1029.30,2058.90,2729.09,2522.10,2856.85,599.90,616.62,12.75,0000 0000 0000 0000 000000
2016-02-12 07:22:15,0.17,2.46,0.00,16.63,20.47,24.47,15.04,47.70,1029.19,2058.78,2726.14,2519.97,2854.53,599.82,616.48,12.80,0000 0000 0000 0000 000000
2016-02-12 07:27:16,0.19,2.47,0.00,16.63,20.47,24.43,15.10,47.92,1029.12,2058.88,2723.39,2517.89,2852.22,600.39,617.04,12.85,0000 0000 0000 0000 000000
2016-02-12 07:32:18,0.18,2.48,0.00,16.62,20.45,24.40,15.02,47.73,1028.93,2058.89,2720.68,2515.85,2849.90,599.53,616.08,12.90,0000 0000 0000 0000 000000
2016-02-12 07:37:19,0.18,2.49,0.00,16.60,20.44,24.40,15.03,47.67,1028.97,2058.93,2717.95,2513.81,2847.50,600.11,616.71,12.95,0000 0000 0000 0000 000000
2016-02-12 07:42:21,0.17,2.50,0.00,16.60,20.44,24.38,15.17,47.84,1029.04,2058.92,2715.36,2511.82,2845.14,600.25,616.92,13.00,0000 0000 0000 0000 000000
2016-02-12 07:47:22,0.18,2.51,0.00,16.62,20.43,24.39,15.07,47.68,1028.93,2058.94,2712.50,2509.75,2842.89,600.01,616.55,13.05,0000 0000 0000 0000 000000
2016-02-12 07:52:24,0.18,2.52,0.00,16.61,20.42,24.40,15.05,47.60,1028.87,2058.94,2709.67,2507.71,2840.57,600.18,616.67,13.10,0000 0000 0000 0000 000000
2016-02-12 07:57:25,0.18,2.53,0.00,16.60,20.42,24.36,15.10,47.76,1028.86,2058.97,2706.92,2505.66,2838.21,600.13,616.66,13.15,0000 0000 0000 0000 000000
2016-02-12 08:02:27,0.18,2.54,0.00,16.59,20.42,24.39,15.09,47.76,1028.87,2058.98,2704.19,2503.59,2835.86,600.18,616.68,13.20,0000 0000 0000 0000 000000
2016-02-12 08:07:28,0.17,2.55,0.00,16.58,20.42,24.37,15.10,47.54,1028.87,2058.98,2701.55,2501.57,2833.55,600.21,616.83,13.25,0000 0000 0000 0000 000000
2016-02-12 08:12:29,0.17,2.56,0.00,16.58,20.42,24.41,15.09,47.44,1028.88,2058.98,2699.05,2499.62,2831.24,599.95,616.49,13.30,0000 0000 0000 0000 000000
2016-02-12 08:17:30,0.17,2.57,0.00,16.58,20.41,24.39,15.09,47.81,1028.85,2058.97,2696.44,2497.74,2829.04,599.95,616.59,13.35,0000 0000 0000 0000 000000
2016-02-12 08:22:32,0.16,2.58,0.00,16.56,20.39,24.36,15.02,47.76,1028.83,2058.98,2693.89,2495.87,2826.91,599.51,616.09,13.40,0000 0000 0000 0000 000000
2016-02-12 08:27:33,0.16,2.58,0.00,16.54,20.39,24.39,15.05,47.70,1028.83,2058.98,2691.25,2494.14,2824.79,600.08,616.72,13.46,0000 0000 0000 0000 000000
2016-02-12 08:32:35,0.16,2.59,0.00,16.53,20.38,24.35,15.03,47.64,1028.83,2058.98,2688.59,2492.25,2822.75,599.77,616.49,13.51,0000 0000 0000 0000 000000
2016-02-12 08:37:36,0.18,2.60,0.00,16.54,20.37,24.37,15.10,47.82,1028.84,2058.99,2686.01,2490.26,2820.53,600.28,616.94,13.56,0000 0000 0000 0000 000000
2016-02-12 08:42:37,0.17,2.61,0.00,16.53,20.36,24.28,15.01,47.67,1028.84,2058.99,2683.39,2488.33,2818.32,600.11,616.71,13.61,0000 0000 0000 0000 000000
2016-02-12 08:47:38,0.17,2.62,0.00,16.52,20.34,24.33,14.97,47.64,1028.84,2058.99,2680.80,2486.35,2816.12,599.91,616.65,13.66,0000 0000 0000 0000 000000
2016-02-12 08:52:39,0.18,2.63,0.00,16.49,20.34,24.32,15.06,47.52,1028.83,2058.99,2678.14,2484.37,2813.83,600.05,616.74,13.71,0000 0000 0000 0000 000000
2016-02-12 08:57:40,0.18,2.64,0.00,16.48,20.34,24.30,14.98,47.48,1028.84,2058.99,2675.52,2482.39,2811.58,599.72,616.48,13.76,0000 0000 0000 0000 000000
2016-02-12 09:02:42,0.17,2.65,0.00,16.48,20.34,24.30,15.21,47.83,1028.83,2058.99,2672.81,2480.40,2809.33,600.24,617.14,13.81,0000 0000 0000 0000 000000
2016-02-12 09:07:43,0.18,2.66,0.00,16.49,20.34,24.32,14.99,47.58,1028.83,2058.99,2670.26,2478.48,2807.15,599.78,616.50,13.86,0000 0000 0000 0000 000000
2016-02-12 09:12:44,0.17,2.66,0.00,16.46,20.33,24.36,15.06,48.16,1028.83,2058.99,2667.77,2476.58,2805.02,600.28,617.10,13.91,0000 0000 0000 0000 000000
2016-02-12 09:17:45,0.16,2.67,0.00,16.46,20.32,24.31,15.06,47.92,1028.83,2058.99,2665.38,2474.80,2802.96,600.11,616.93,13.96,0000 0000 0000 0000 000000
2016-02-12 09:22:46,0.16,2.68,0.00,16.45,20.32,24.32,15.07,47.97,1028.83,2058.99,2663.00,2473.06,2800.98,600.17,616.93,14.01,0000 0000 0000 0000 000000
2016-02-12 09:27:47,0.16,2.69,0.00,16.46,20.32,24.26,14.97,47.92,1028.83,2059.00,2660.51,2471.28,2798.99,599.69,616.49,14.06,0000 0000 0000 0000 000000
2016-02-12 09:32:49,0.17,2.70,0.00,16.43,20.31,24.31,15.05,47.78,1028.83,2059.01,2658.05,2469.39,2796.77,600.02,616.86,14.11,0000 0000 0000 0000 000000
2016-02-12 09:37:50,0.16,2.71,0.00,16.42,20.31,24.31,15.02,47.54,1028.83,2059.00,2655.56,2467.56,2794.66,599.87,616.77,14.16,0000 0000 0000 0000 000000
2016-02-12 09:42:51,0.16,2.71,0.00,16.42,20.30,24.30,15.07,47.77,1028.83,2059.01,2653.35,2465.83,2792.64,599.88,616.76,14.21,0000 0000 0000 0000 000000
2016-02-12 09:47:52,0.16,2.72,0.00,16.42,20.30,24.26,15.12,47.62,1028.82,2059.00,2650.90,2464.09,2790.62,600.45,617.31,14.26,0000 0000 0000 0000 000000
2016-02-12 09:52:54,0.15,2.73,0.00,16.41,20.30,24.26,15.09,47.59,1028.82,2059.01,2648.59,2462.29,2788.55,600.43,617.33,14.31,0000 0000 0000 0000 000000
2016-02-12 09:57:55,0.16,2.74,0.00,16.42,20.29,24.21,15.07,47.56,1028.81,2059.00,2646.34,2460.53,2786.57,600.04,616.94,14.36,0000 0000 0000 0000 000000
2016-02-12 10:02:56,0.16,2.75,0.00,16.39,20.29,24.27,15.03,47.93,1028.81,2059.00,2643.88,2458.79,2784.67,600.00,616.88,14.41,0000 0000 0000 0000 000000
2016-02-12 10:07:58,0.15,2.75,0.00,16.40,20.29,24.24,15.09,47.73,1028.81,2059.00,2641.67,2457.09,2782.68,599.84,616.78,14.46,0000 0000 0000 0000 000000
2016-02-12 10:12:59,0.15,2.76,0.00,16.39,20.27,24.26,15.07,47.72,1028.76,2059.01,2639.40,2455.43,2780.73,600.06,616.97,14.51,0000 0000 0000 0000 000000
2016-02-12 10:18:00,0.16,2.77,0.00,16.37,20.27,24.26,15.10,47.69,1028.69,2059.01,2637.11,2453.66,2778.80,600.02,616.93,14.56,0000 0000 0000 0000 000000
2016-02-12 10:23:02,0.16,2.78,0.00,16.37,20.27,24.24,15.03,47.57,1028.60,2059.01,2634.75,2451.97,2776.85,600.16,617.17,14.61,0000 0000 0000 0000 000000
2016-02-12 10:28:03,0.15,2.79,0.00,16.37,20.27,24.25,15.05,47.70,1028.47,2059.01,2632.40,2450.28,2774.96,599.87,616.70,14.66,0000 0000 0000 0000 000000
2016-02-12 10:33:04,0.16,2.79,0.00,16.36,20.25,24.27,15.09,47.61,1028.56,2059.02,2630.27,2448.61,2772.97,600.00,616.89,14.71,0000 0000 0000 0000 000000
2016-02-12 10:38:06,0.15,2.80,0.00,16.36,20.24,24.23,15.03,47.65,1028.45,2059.04,2628.13,2446.99,2771.06,600.10,616.87,14.76,0000 0000 0000 0000 000000
2016-02-12 10:43:07,0.15,2.81,0.00,16.34,20.24,24.23,15.09,47.84,1028.43,2059.04,2625.87,2445.27,2769.15,600.13,616.98,14.81,0000 0000 0000 0000 000000
2016-02-12 10:48:09,0.16,2.82,0.00,16.34,20.22,24.15,15.02,48.01,1028.44,2059.07,2623.67,2443.66,2767.32,599.60,616.45,14.86,0000 0000 0000 0000 000000
2016-02-12 10:53:09,0.14,2.83,0.00,16.33,20.22,24.21,15.04,47.81,1028.40,2059.11,2621.66,2442.02,2765.40,600.06,616.91,14.91,0000 0000 0000 0000 000000
2016-02-12 10:58:11,0.14,2.83,0.00,16.33,20.22,24.15,15.03,47.64,1028.39,2059.07,2619.60,2440.41,2763.51,599.46,616.27,14.96,0000 0000 0000 0000 000000
2016-02-12 11:03:12,0.15,2.84,0.00,16.33,20.22,24.17,15.16,47.58,1028.36,2059.07,2617.57,2438.84,2761.65,600.25,617.04,15.01,0000 0000 0000 0000 000000
2016-02-12 11:08:14,0.14,2.85,0.00,16.31,20.20,24.16,15.08,47.62,1028.35,2059.05,2615.45,2437.29,2759.82,600.46,617.41,15.06,0000 0000 0000 0000 000000
2016-02-12 11:13:15,0.15,2.86,0.00,16.29,20.19,24.21,15.08,47.61,1028.36,2059.07,2613.20,2435.66,2758.04,599.63,616.57,15.11,0000 0000 0000 0000 000000
2016-02-12 11:18:17,0.16,2.86,0.00,16.29,20.18,24.19,15.10,48.01,1028.35,2059.15,2610.95,2434.03,2756.25,599.96,616.89,15.16,0000 0000 0000 0000 000000
2016-02-12 11:23:18,0.16,2.87,0.00,16.31,20.17,24.12,15.03,47.66,1028.34,2059.16,2608.66,2432.35,2754.30,599.82,616.63,15.21,0000 0000 0000 0000 000000
2016-02-12 11:28:19,0.18,2.88,0.00,16.28,20.17,24.11,15.13,47.61,1028.34,2059.37,2606.38,2430.73,2752.48,600.27,617.11,15.26,0000 0000 0000 0000 000000
2016-02-12 11:33:20,0.17,2.89,0.00,16.29,20.15,24.07,15.08,47.80,1028.34,2059.50,2604.09,2429.01,2750.61,600.00,616.88,15.31,0000 0000 0000 0000 000000
2016-02-12 11:38:21,0.15,2.90,0.00,16.29,20.14,24.07,15.02,47.77,1028.34,2059.60,2601.85,2427.38,2748.75,599.62,616.51,15.36,0000 0000 0000 0000 000000
2016-02-12 11:43:23,0.16,2.90,0.00,16.30,20.14,24.09,15.04,47.71,1028.34,2059.60,2599.65,2425.71,2746.82,600.27,617.12,15.41,0000 0000 0000 0000 000000
2016-02-12 11:48:24,0.15,2.91,0.00,16.27,20.12,24.14,15.03,47.67,1028.34,2059.58,2597.42,2424.06,2745.01,599.80,616.83,15.46,0000 0000 0000 0000 000000
2016-02-12 11:53:25,0.17,2.92,0.00,16.26,20.12,24.08,15.01,47.78,1028.33,2059.92,2595.30,2422.55,2743.27,599.55,616.48,15.51,0000 0000 0000 0000 000000
2016-02-12 11:58:27,0.14,2.93,0.00,16.25,20.12,24.11,15.04,47.56,1028.32,2059.93,2593.36,2420.93,2741.40,599.59,616.49,15.56,0000 0000 0000 0000 000000
2016-02-12 12:03:28,0.15,2.94,0.00,16.24,20.11,24.08,15.10,47.91,1028.26,2059.95,2591.19,2419.40,2739.62,600.15,617.07,15.61,0000 0000 0000 0000 000000
2016-02-12 12:08:29,0.15,2.95,0.00,16.22,20.10,24.08,15.07,47.57,1028.14,2059.96,2588.94,2417.79,2737.84,599.47,616.37,15.66,0000 0000 0000 0000 000000
2016-02-12 12:13:30,0.13,2.95,0.00,16.20,20.09,24.10,15.01,47.49,1028.24,2059.97,2587.09,2416.32,2735.99,599.92,616.97,15.71,0000 0000 0000 0000 000000
2016-02-12 12:18:32,0.15,2.96,0.00,16.20,20.09,24.05,15.09,47.74,1028.22,2059.99,2584.98,2414.72,2734.21,600.18,617.17,15.76,0000 0000 0000 0000 000000
2016-02-12 12:23:33,0.14,2.97,0.00,16.23,20.07,24.04,15.06,47.40,1027.99,2059.98,2582.93,2413.18,2732.48,599.88,616.67,15.82,0000 0000 0000 0000 000000
2016-02-12 12:28:34,0.14,2.98,0.00,16.21,20.07,24.02,15.05,47.40,1028.03,2059.98,2580.74,2411.62,2730.70,600.01,616.80,15.87,0000 0000 0000 0000 000000
2016-02-12 12:33:35,0.15,2.98,0.00,16.19,20.07,24.08,15.21,47.56,1027.98,2059.98,2578.50,2409.97,2728.84,600.48,617.37,15.92,0000 0000 0000 0000 000000
2016-02-12 12:38:36,0.15,2.99,0.00,16.17,20.04,23.96,15.05,47.93,1027.90,2059.98,2576.25,2408.33,2727.14,600.16,616.94,15.97,0000 0000 0000 0000 000000
2016-02-12 12:43:38,0.16,3.00,0.00,16.17,20.03,23.99,15.10,47.82,1027.86,2059.99,2574.02,2406.68,2725.38,600.18,617.00,16.02,0000 0000 0000 0000 000000
2016-02-12 12:48:39,0.13,3.01,0.00,16.15,20.02,23.96,14.96,47.63,1027.86,2059.99,2572.16,2405.23,2723.50,599.89,616.74,16.07,0000 0000 0000 0000 000000
2016-02-12 12:53:40,0.16,3.01,0.00,16.14,20.02,24.03,15.01,47.48,1027.85,2059.99,2570.19,2403.70,2721.74,599.85,616.78,16.12,0000 0000 0000 0000 000000